Location: Geçitköy
(36.7327°N, 29.8010°E)
Time: 19:21:32
(UTC+00:00)

Cosmos 1241 Rocket - Pass Details

Date: 12 January 2026
Orbit: 942 x 1004 km, 65.8° (Epoch: 10 February)

Event Time Altitude Azimuth Distance (km) Brightness Sun altitude
Rises 15:50:19 0° 332° (NNW) 3,610 7.6 -9.1°
Reaches altitude 10° 15:52:52 10° 333° (NNW) 2,663 6.9 -9.6°
Maximum altitude 15:59:05 80° 61° (ENE) 963 4.4 -10.8°
Drops below altitude 10° 16:05:19 10° 149° (SSE) 2,670 6.7 -12.0°
Sets 16:07:52 0° 150° (SSE) 3,620 7.4 -12.4°
